Location: Burgberg
(50.1428°N, 11.0671°E)
Time: 21:52:43
(UTC+00:00)

NOAA 12 - Pass Details

Date: 26 January 2020
Orbit: 796 x 814 km, 98.5° (Epoch: 25 February)

Event Time Altitude Azimuth Distance (km) Brightness Sun altitude
Rises 06:09:38 0° 14° (NNE) 3,333 7.2 -8.0°
Reaches altitude 10° 06:11:58 10° 15° (NNE) 2,400 6.5 -7.6°
Maximum altitude 06:17:18 89° 100° (E) 817 4.2 -6.8°
Drops below altitude 10° 06:22:37 10° 196° (SSW) 2,394 6.7 -6.0°
Sets 06:24:57 0° 197° (SSW) 3,323 7.4 -5.7°
